EW2817 Weather Reports


time (UTC)temp
F
wind
direction
speed
knots
gust
knots
rain 1hr
in
rain 24hr
in
rain mn
in
humidity
%
barometer
mb
20260505081009 58 0 0.0 0.0 0.00 0.00 0.00 77 991.6
20260505075509 59 0 0.0 0.0 0.00 0.00 0.00 76 991.5
20260505074007 60 0 0.0 0.0 0.00 0.00 0.00 75 991.5
20260505072506 60 0 0.0 0.0 0.00 0.00 0.00 74 991.5
20260505071004 60 0 0.0 0.0 0.00 0.00 0.00 73 991.3
20260505065505 61 0 0.0 0.0 0.00 0.00 0.00 72 991.3
20260505062505 62 0 0.0 0.0 0.00 0.00 0.00 70 991.2
20260505061002 62 0 0.0 0.0 0.00 0.00 0.00 70 991.2
20260505055503 62 0 0.0 0.0 0.00 0.00 0.00 69 991.3
20260505054002 62 0 0.0 0.0 0.00 0.00 0.00 69 991.2
20260505051001 63 0 0.0 0.0 0.00 0.00 0.00 67 991.4
20260505040956 64 0 0.0 0.0 0.00 0.00 0.00 61 991.3
20260505035454 65 0 0.0 0.0 0.00 0.00 0.00 60 991.3
20260505033955 65 0 0.0 0.0 0.00 0.00 0.00 58 991.4
20260505032454 65 0 0.0 0.0 0.00 0.00 0.00 55 991.4
20260505030954 66 0 0.0 0.0 0.00 0.00 0.00 53 991.4
20260505025454 66 0 0.0 0.0 0.00 0.00 0.00 52 991.3
20260505023952 66 0 0.0 0.0 0.00 0.00 0.00 51 991.3
20260505022451 67 0 0.0 0.0 0.00 0.00 0.00 51 991.2
20260505020949 67 0 0.0 0.0 0.00 0.00 0.00 51 991.0
20260505013945 67 0 0.0 0.0 0.00 0.00 0.00 49 990.8
20260505012445 68 0 0.0 0.0 0.00 0.00 0.00 49 990.6
20260505010945 69 0 0.0 0.0 0.00 0.00 0.00 51 990.4
20260505005445 70 0 0.0 0.0 0.00 0.00 0.00 48 990.3
20260505003946 71 0 0.0 0.0 0.00 0.00 0.00 47 990.1
20260505002439 72 0 0.0 0.0 0.00 0.00 0.00 46 989.9
20260504235439 74 0 0.0 0.0 0.00 0.00 0.00 44 989.7
20260504232431 75 0 0.0 0.0 0.00 0.00 0.00 40 989.6
20260504225427 76 0 0.0 0.0 0.00 0.00 0.00 37 989.5
20260504223924 76 0 0.0 0.0 0.00 0.00 0.00 37 989.6
20260504222425 77 0 0.0 0.0 0.00 0.00 0.00 36 989.6
20260504220924 77 0 0.0 0.0 0.00 0.00 0.00 36 989.6
20260504215425 77 0 0.0 0.0 0.00 0.00 0.00 37 989.6
20260504213922 77 0 0.0 0.0 0.00 0.00 0.00 36 989.6
20260504212420 78 0 0.0 0.0 0.00 0.00 0.00 36 989.6
20260504210919 78 0 0.0 0.0 0.00 0.00 0.00 37 989.6
20260504205419 78 0 0.0 0.0 0.00 0.00 0.00 35 989.7
20260504203918 78 0 0.0 0.0 0.00 0.00 0.00 36 989.8
20260504202417 78 0 0.0 0.0 0.00 0.00 0.00 35 989.9
20260504200912 78 0 0.0 0.0 0.00 0.00 0.00 34 990.1
20260504195410 78 0 0.0 0.0 0.00 0.00 0.00 35 990.1
20260504192409 78 0 0.0 0.0 0.00 0.00 0.00 32 990.5
20260504185406 79 0 0.0 0.0 0.00 0.00 0.00 32 990.9
20260504183905 80 0 0.0 0.0 0.00 0.00 0.00 32 990.9
20260504182402 80 0 0.0 0.0 0.00 0.00 0.00 33 991.2
20260504180902 80 0 0.0 0.0 0.00 0.00 0.00 32 991.3
20260504175402 80 0 0.0 0.0 0.00 0.00 0.00 32 991.3
20260504173904 78 0 0.0 0.0 0.00 0.00 0.00 34 991.5
20260504172401 79 0 0.0 0.0 0.00 0.00 0.00 34 991.5
20260504150848 71 0 0.0 0.0 0.00 0.00 0.00 47 993.1
20260504140844 62 0 0.0 0.0 0.00 0.00 0.00 71 993.2